Location: Pedholt
(56.0260°N, 10.2097°E)
Time: 03:19:45
(UTC+00:00)

SR - Pass Details

Date: 02 August 2021
Orbit: 581 x 874 km, 66.7° (Epoch: 21 September)

Event Time Altitude Azimuth Distance (km) Brightness Sun altitude
Rises 06:21:06 0° 226° (SW) 3,417 ? 22.3°
Reaches altitude 10° 06:23:37 10° 228° (SW) 2,457 ? 22.7°
Maximum altitude 06:29:19 80° 315° (NW) 820 ? 23.5°
Drops below altitude 10° 06:34:38 10° 44° (NE) 2,295 ? 24.2°
Sets 06:36:57 0° 45° (NE) 3,176 ? 24.5°
